Home > Weather > Bowling Green > Past weeks

Flag for U.S.A. Weather for the Past 2 Weeks in Bowling Green, Kentucky, U.S.A.

Now
36 °F

Mostly cloudy.


Feels Like: 32 °F
Forecast: 28 / 45 °F
Wind: 5 mph from South

Location: Glasgow Municipal Airport

Current Time: Feb 8, 2016 at 7:41:13 AM

Latest Report: Feb 8, 2016 at 7:10 AM


Visibility: 10 mi

Pressure: 29.72 "Hg

Humidity: 100%

Dew point: 36 °F

Location of Bowling GreenLocation

Historic Weather in Bowling Green — Graph

°F

Bowling Green Temperature Yesterday

Maximum temperature yesterday: 54 °F (at 2:10 PM)
Minimum temperature yesterday: 24 °F (at 6:50 AM)
Average temperature yesterday: 40 °F

High & Low Weather Summary for the Past Weeks

 TemperatureHumidityPressure
High72 °F (Feb 2, 12:55 PM)100% (Jan 24, 10:15 AM)30.47 "Hg (Jan 24, 10:15 AM)
Low-1 °F (Jan 24, 6:55 AM)26% (Feb 7, 2:30 PM)29.63 "Hg (Feb 2, 9:35 PM)
Average41 °F71%30.06 "Hg
* Reported Jan 24 6:15 AM — Feb 8 6:10 AM, Bowling Green, Weather by CustomWeather, © 2016

Note: Actual official high and low records may vary slightly from our data, if they occured in-between our weather recording intervals... More about our weather records

Advertising

Bowling Green Weather History for the Previous 24 Hours

 ConditionsComfort  
Time TempWeatherWind HumidityBarometerVisibility
6:10 AM
Mon, Feb 8
32 °FFog.No wind100%29.73 "Hg1 mi
5:50 AM32 °FFog.No wind100%29.73 "Hg1 mi
5:30 AM33 °FFog.No wind100%29.74 "Hg5 mi
5:10 AM33 °FPassing clouds.No wind100%29.75 "Hg10 mi
4:50 AM35 °FClear.No wind100%29.76 "Hg10 mi
4:30 AM36 °FClear.No wind100%29.76 "Hg10 mi
4:10 AM36 °FPassing clouds.No wind100%29.77 "Hg10 mi
3:50 AM37 °FMostly cloudy.3 mph100%29.77 "Hg10 mi
3:30 AM38 °FOvercast.3 mph88%29.78 "Hg10 mi
3:10 AM39 °FLight rain. Mostly cloudy.9 mph88%29.80 "Hg10 mi
2:50 AM40 °FLight rain. Mostly cloudy.7 mph86%29.80 "Hg10 mi
2:10 AM41 °FLight rain. Mostly cloudy.13 mph81%29.80 "Hg10 mi
1:30 AM44 °FRain. Mostly cloudy.13 mph69%29.79 "Hg10 mi
1:10 AM44 °FLight rain. Overcast.8 mph66%29.79 "Hg10 mi
12:50 AM44 °FLight rain. Mostly cloudy.12 mph66%29.80 "Hg10 mi
12:30 AM46 °FDrizzle. Mostly cloudy.14 mph50%29.81 "Hg10 mi
12:10 AM44 °FMostly cloudy.3 mph50%29.80 "Hg10 mi
11:50 PM
Sun, Feb 7
44 °FOvercast.3 mph47%29.81 "Hg10 mi
11:30 PM45 °FOvercast.3 mph43%29.81 "Hg10 mi
11:10 PM45 °FOvercast.5 mph42%29.83 "Hg10 mi
10:50 PM44 °FOvercast.3 mph43%29.84 "Hg10 mi
10:10 PM44 °FOvercast.5 mph44%29.86 "Hg10 mi
9:50 PM41 °FPassing clouds.3 mph48%29.88 "Hg10 mi
9:10 PM40 °FPassing clouds.5 mph49%29.88 "Hg10 mi
8:50 PM41 °FPassing clouds.3 mph47%29.89 "Hg10 mi
8:10 PM42 °FClear.No wind43%29.91 "Hg10 mi
7:50 PM41 °FClear.No wind45%29.91 "Hg10 mi
7:10 PM43 °FClear.No wind40%29.91 "Hg10 mi
6:50 PM42 °FClear.3 mph43%29.93 "Hg10 mi
6:30 PM44 °FClear.No wind38%29.93 "Hg10 mi
6:10 PM44 °FClear.No wind38%29.93 "Hg10 mi
5:50 PM44 °FClear.No wind39%29.93 "Hg10 mi
5:10 PM47 °FClear.6 mph35%29.94 "Hg10 mi
4:50 PM51 °FClear.8 mph29%29.94 "Hg10 mi
4:30 PM52 °FClear.7 mph29%29.94 "Hg10 mi
4:10 PM51 °FSunny.10 mph30%29.95 "Hg10 mi
3:50 PM53 °FSunny.8 mph29%29.95 "Hg10 mi
3:30 PM53 °FSunny.13 mph28%29.96 "Hg10 mi
3:10 PM54 °FSunny.13 mph28%29.97 "Hg10 mi
2:50 PM54 °FSunny.12 mph27%29.97 "Hg10 mi
2:30 PM54 °FSunny.12 mph26%29.98 "Hg10 mi
2:10 PM54 °FSunny.12 mph27%29.99 "Hg10 mi
1:50 PM53 °FSunny.12 mph28%30.00 "Hg10 mi
1:30 PM53 °FSunny.12 mph28%30.01 "Hg10 mi
1:10 PM54 °FSunny.13 mph27%30.03 "Hg10 mi
12:50 PM53 °FSunny.9 mph29%30.05 "Hg10 mi
12:30 PM54 °FSunny.12 mph29%30.06 "Hg10 mi
12:10 PM53 °FSunny.9 mph30%30.08 "Hg10 mi
11:50 AM52 °FSunny.7 mph33%30.09 "Hg10 mi
11:30 AM50 °FSunny.6 mph35%30.11 "Hg10 mi
11:10 AM50 °FSunny.9 mph36%30.12 "Hg10 mi
10:50 AM48 °FSunny.8 mph40%30.13 "Hg10 mi
10:30 AM47 °FSunny.8 mph43%30.15 "Hg10 mi
10:10 AM45 °FSunny.7 mph48%30.16 "Hg10 mi
9:30 AM43 °FSunny.6 mph54%30.16 "Hg10 mi
9:10 AM41 °FSunny.5 mph57%30.17 "Hg10 mi
8:50 AM39 °FSunny.5 mph62%30.18 "Hg10 mi
8:30 AM35 °FSunny.No wind77%30.19 "Hg10 mi
8:10 AM32 °FSunny.No wind83%30.19 "Hg10 mi
7:50 AM29 °FSunny.No wind90%30.20 "Hg10 mi
7:30 AM27 °FSunny.No wind100%30.20 "Hg10 mi
7:10 AM25 °FSunny.No wind100%30.20 "Hg10 mi
Weather by CustomWeather, © 2016

See weather overviewHow to use our weather pages